Weather History for KMCW - November, 2013

Change the Weather History Date:

Monday, November 25, 2013

  Actual Average Record
Temperature  
Mean Temperature 33 °F 28 °F  
Max Temperature 42 °F 37 °F 68 °F (1960)
Min Temperature 23 °F 19 °F -13 °F (1977)
Degree Days  
Heating Degree Days 32 37  
Month to date heating degree days 790 748  
Since 1 July heating degree days 1448 1486  
Cooling Degree Days 0 0  
Month to date cooling degree days 0 0  
Year to date cooling degree days 718 616  
Moisture  
Dew Point 22 °F    
Average Humidity 68    
Maximum Humidity 81    
Minimum Humidity 54    
Precipitation  
Precipitation T in 0.05 in 0.51 in (1942)
Month to date precipitation 1.37 1.61  
Year to date precipitation 37.77 33.69  
Snow  
Snow T in 0.20 in 10.00 in (1930)
Month to date snowfall 1.5 3.1  
Since 1 July snowfall 1.5 3.5  
Since 1 September snowfall 1.5 3.5  
Snow Depth T in    
Sea Level Pressure  
Sea Level Pressure 30.09 in    
Wind  
Wind Speed 16 mph (West)    
Max Wind Speed 26 mph    
Max Gust Speed 34 mph    
Visibility 10 miles    
Events      
T = Trace of Precipitation, MM = Missing Value Source: NWS Daily Summary

Daily Weather History Graph

Daily Weather History Graph

Search for Another Location

Airport or City:

Trip Planner

Search our weather history database for the weather conditions in past years. The results will help you decide how hot, cold, wet, or windy it might be!

Date:

Astronomy

Nov. 25, 2013 Rise Set
Actual Time 7:18 AM CST 4:41 PM CST
Civil Twilight 6:47 AM CST 5:13 PM CST
Nautical Twilight 6:12 AM CST 5:48 PM CST
Astronomical Twilight 5:38 AM CST 6:22 PM CST
Moon No Moon Rise 12:29 PM CST (11/25)
Length of Visible Light 10h 25m
Length of Day
9h 22m
Waning Gibbous, 51% of the Moon is Illuminated
Nov 25
Waning Gibbous
Nov 25
Last Quarter
Dec 2
New
Dec 9
First Quarter
Dec 17
Full

Hourly Weather History & Observations

Time (CST) Temp. Windchill Dew Point Humidity Pressure Visibility Wind Dir Wind Speed Gust Speed Precip Events Conditions
12:53 AM 24.1 °F 9.4 °F 12.0 °F 60% 30.14 in 10.0 mi SSW 20.7 mph 31.1 mph N/A   Overcast
1:53 AM 24.1 °F 9.0 °F 14.0 °F 65% 30.13 in 10.0 mi SSW 21.9 mph 29.9 mph N/A   Overcast
2:53 AM 25.0 °F 9.9 °F 18.0 °F 75% 30.12 in 10.0 mi SW 23.0 mph 31.1 mph 0.00 in   Overcast
3:53 AM 24.1 °F 9.8 °F 19.9 °F 84% 30.10 in 10.0 mi SW 19.6 mph 29.9 mph N/A   Overcast
4:18 AM 25.0 °F 9.5 °F 19.9 °F 81% 30.04 in 10.0 mi SW 24.2 mph 32.2 mph N/A   Overcast
4:53 AM 25.0 °F 10.2 °F 19.0 °F 78% 30.07 in 10.0 mi SW 21.9 mph 28.8 mph N/A   Overcast
5:53 AM 25.0 °F 12.2 °F 18.0 °F 75% 30.07 in 10.0 mi SW 16.1 mph 25.3 mph N/A   Mostly Cloudy
6:53 AM 25.0 °F 11.7 °F 19.0 °F 78% 30.08 in 10.0 mi SW 17.3 mph - N/A   Clear
7:53 AM 26.1 °F 12.7 °F 19.9 °F 78% 30.09 in 10.0 mi SW 18.4 mph 25.3 mph N/A   Overcast
8:53 AM 27.0 °F 13.2 °F 19.9 °F 75% 30.08 in 10.0 mi WSW 20.7 mph 26.5 mph N/A   Overcast
9:53 AM 28.9 °F 15.8 °F 21.0 °F 72% 30.09 in 10.0 mi WSW 20.7 mph 26.5 mph N/A   Clear
10:53 AM 32.0 °F 21.2 °F 21.9 °F 66% 30.08 in 10.0 mi WSW 16.1 mph - N/A   Clear
11:53 AM 36.0 °F 25.6 °F 25.0 °F 64% 30.06 in 10.0 mi West 18.4 mph - N/A   Clear
12:53 PM 39.9 °F 32.1 °F 27.0 °F 60% 30.05 in 10.0 mi WNW 13.8 mph - N/A   Scattered Clouds
1:04 PM 37.9 °F 28.9 °F 27.0 °F 65% 30.03 in 10.0 mi West 16.1 mph - N/A   Mostly Cloudy
1:53 PM 39.9 °F 32.1 °F 27.0 °F 60% 30.04 in 10.0 mi WNW 13.8 mph - N/A   Partly Cloudy
2:53 PM 41.0 °F 32.8 °F 26.1 °F 55% 30.05 in 10.0 mi NW 16.1 mph - N/A   Mostly Cloudy
3:53 PM 39.9 °F 31.8 °F 25.0 °F 55% 30.08 in 10.0 mi WNW 15.0 mph - N/A   Scattered Clouds
4:53 PM 37.9 °F 29.6 °F 26.1 °F 62% 30.09 in 10.0 mi NW 13.8 mph - N/A   Overcast
5:53 PM 34.0 °F 24.6 °F 23.0 °F 64% 30.12 in 10.0 mi NW 13.8 mph - N/A   Scattered Clouds
6:53 PM 32.0 °F 23.6 °F 23.0 °F 69% 30.13 in 10.0 mi NW 10.4 mph - N/A   Clear
7:53 PM 28.9 °F 21.9 °F 21.9 °F 75% 30.14 in 10.0 mi West 6.9 mph - N/A   Overcast
8:53 PM 32.0 °F 25.6 °F 23.0 °F 69% 30.13 in 10.0 mi West 6.9 mph - N/A   Overcast
9:53 PM 32.0 °F 24.8 °F 23.0 °F 69% 30.13 in 10.0 mi West 8.1 mph - N/A   Overcast
10:53 PM 32.0 °F 24.2 °F 23.0 °F 69% 30.12 in 10.0 mi WNW 9.2 mph - N/A   Overcast
11:53 PM 33.1 °F 22.6 °F 21.9 °F 64% 30.13 in 10.0 mi NW 16.1 mph - N/A   Overcast